Location: ?sanag?dem
(16.9522°N, 81.1036°E)
Time: 16:54:38
(UTC+00:00)

BlueWalker 3 - Pass Details

Date: 22 August 2024
Orbit: 475 x 486 km, 53.2° (Epoch: 20 September)

Event Time Altitude Azimuth Distance (km) Brightness Sun altitude
Rises 13:51:56 0° 218° (SW) 2,512 5.8 -13.8°
Reaches altitude 10° 13:54:04 10° 220° (SW) 1,638 4.8 -14.2°
Maximum altitude 13:57:46 76° 306° (NW) 495 2.0 -15.1°
Drops below altitude 10° 14:01:29 10° 32° (NNE) 1,649 4.4 -15.9°
Sets 14:03:39 0° 34° (NE) 2,532 5.3 -16.4°
